Location: D�dingen
(46.8492°N, 7.1885°E)
Time: 10:11:22
(UTC+00:00)

Daily predictions for brighter satellites

Satellite Brightness Start Highest point End
(mag) Time Altitude Azimuth Time Altitude Azimuth Time Altitude Azimuth
CZ-4C R/B 4.0 18:17:15 10° W 18:22:01 31° NNW 18:27:36 10° NNE
USA 81 4.2 18:17:29 10° N 18:22:40 52° E 18:27:47 10° SSE
STARLINK-1083 3.8 18:20:09 10° WNW 18:24:09 60° NNE 18:28:09 10° ESE
STARLINK-1237 4.2 18:20:27 10° SSW 18:24:10 37° SE 18:27:54 10° ENE
STARLINK-1245 3.1 18:22:08 10° SW 18:25:11 53° SE 18:28:14 10° ENE
STARLINK-1238 3.1 18:22:34 10° SW 18:25:37 53° SE 18:28:42 10° ENE
STARLINK-1205 3.0 18:23:29 10° SW 18:26:32 54° SE 18:29:36 10° ENE
Cosmos 1331 Rocket 4.1 18:21:37 10° NNW 18:26:43 55° ENE 18:31:46 10° SE
STARLINK-1204 3.0 18:23:55 10° SW 18:26:57 55° SE 18:30:01 10° ENE
Cosmos 1674 2.6 18:24:22 10° N 18:28:10 78° E 18:31:53 10° SSE
Cosmos 2219 Rocket 3.5 18:22:53 10° SW 18:28:17 45° NW 18:33:43 10° NNE
STARLINK-1202 4.1 18:25:00 10° SSW 18:28:46 40° SE 18:32:33 10° ENE
STARLINK-1125 3.8 18:24:45 10° WNW 18:28:47 63° NNE 18:32:48 10° ESE
Orbus 7S? 3.3 18:26:17 10° WNW 18:29:25 47° SW 18:31:45 10° SSE
SL-14 R/B 4.2 18:26:14 10° N 18:29:53 31° ENE 18:33:30 10° SE
KORONAS-FOTON 3.7 18:27:26 10° N 18:31:17 78° E 18:35:05 10° SSE
STARLINK-1109 3.7 18:29:02 10° WNW 18:33:05 66° NNE 18:37:06 10° ESE
STARLINK-1246 4.0 18:29:52 10° SSW 18:33:43 44° SE 18:37:36 10° ENE
Cosmos 1943 Rocket 3.4 18:32:20 10° N 18:36:51 25° NE 18:41:18 10° ESE
Cosmos 1980 3.8 18:32:02 10° SSW 18:37:43 86° WNW 18:43:28 10° NNE
STARLINK-1091 3.6 18:33:42 10° WNW 18:37:45 70° NNE 18:41:39 11° ESE
Cosmos 1766 3.2 18:34:07 10° S 18:38:05 72° E 18:42:04 10° NNE
S3M 4.0 18:33:36 10° S 18:39:57 76° E 18:46:22 10° NNE
Ariane Rocket 3.0 18:36:44 10° SSE 18:41:47 72° ENE 18:46:51 10° N
YAOGAN 1 4.3 18:38:03 10° SSW 18:42:04 37° W 18:46:08 10° NNW
Cosmos 2084 4.5 18:37:45 10° WSW 18:42:08 52° NW 18:46:32 10° NNE
STARLINK-1224 3.8 18:38:45 10° SW 18:42:39 50° SE 18:46:34 10° ENE
BREEZE-M DEB (TANK) 4.2 18:29:34 10° WNW 18:43:29 55° SW 18:47:02 10° SE
Cosmos 1386 Rocket 4.4 18:37:33 10° N 18:43:39 81° E 18:49:39 10° S
SL-08 ROCKET BODY 4.4 18:37:41 10° N 18:43:52 80° E 18:49:54 10° SSE
Cosmos 1455 Rocket 3.1 18:40:48 10° S 18:45:03 58° E 18:49:21 10° NNE
STARLINK-1225 3.7 18:43:24 10° SW 18:47:20 54° SE 18:51:17 10° ENE
Cosmos 1110 Rocket 4.0 18:42:19 10° NNW 18:47:38 90° NE 18:52:50 10° SSE
Cosmos 332 Rocket 4.4 18:43:58 10° NNW 18:48:49 62° WSW 18:53:39 10° S
STARLINK-1203 3.5 18:45:23 10° SW 18:49:15 60° SE 18:53:09 10° ENE
STARLINK-1072 3.5 18:46:54 10° WNW 18:50:55 83° NNE 18:54:14 15° ESE
SL-16 R/B 2.5 18:45:54 10° S 18:51:15 45° ESE 18:56:37 10° NE
Cosmos 1892 Rocket 3.8 18:46:49 10° NNW 18:51:19 79° W 18:55:47 10° S
Cosmos 2333 Rocket 4.2 18:46:52 10° WSW 18:51:53 31° NW 18:56:55 10° NNE
STARLINK-1230 3.6 18:48:00 10° SW 18:51:57 59° SE 18:55:56 10° ENE
Cosmos 1626 Rocket 4.1 18:48:44 10° N 18:52:53 38° ENE 18:56:58 10° SE
USA 186 1.9 18:50:49 10° SSE 18:54:13 65° ENE 18:57:36 10° N
STARLINK-1103 4.5 18:50:39 10° WNW 18:54:36 41° NNE 18:57:58 13° E
Cosmos 1953 3.8 18:53:54 15° ESE 18:55:11 17° E 18:57:47 10° NE
ARGOS Delta rocket 4.1 18:50:10 10° SSE 18:55:15 89° ENE 19:00:39 10° N
STARLINK-1234 3.1 18:52:17 10° WSW 18:55:16 67° NNW 18:58:16 10° ENE
STARLINK-1096 3.5 18:51:22 10° WNW 18:55:23 88° NNE 18:58:31 16° ESE
Cosmos 1626 2.2 18:52:13 10° N 18:55:51 54° ENE 18:59:29 10° SSE
STARLINK-1243 3.5 18:52:39 10° SW 18:56:39 63° SE 19:00:39 10° ENE
Okean 1-7 Rocket 3.8 18:54:49 10° NNW 18:59:14 76° W 19:03:36 10° S
STARLINK-1101 4.4 18:55:39 10° WNW 18:59:37 42° NNE 19:02:46 15° E
STARLINK-1079 3.5 18:55:50 10° WNW 18:59:52 87° SSW 19:02:49 17° ESE
Cosmos 1602 Rocket 4.2 18:56:16 10° N 19:00:26 37° ENE 19:03:54 14° SE
STARLINK-1236 3.5 18:57:17 10° SW 19:01:18 68° SE 19:05:19 10° ENE
ATLAS 2AS CENTAUR R/B 4.2 18:57:38 10° NW 19:04:11 28° NNE 19:10:15 10° ENE
STARLINK-1116 3.5 19:00:19 10° WNW 19:04:20 82° SSW 19:07:08 19° SE
STARLINK-1102 4.4 19:00:38 10° WNW 19:04:37 44° NNE 19:07:32 17° E
H-2A R/B 2.1 19:00:46 10° SSE 19:06:06 87° WSW 19:11:20 10° NNW
STARLINK-1111 4.3 19:05:36 10° WNW 19:09:36 45° NNE 19:12:19 19° E
Aureole 2 Rocket 4.1 19:07:12 10° N 19:09:45 19° ENE 19:10:31 17° ENE
Cosmos 883 Rocket 4.4 19:03:59 10° S 19:10:09 78° E 19:16:27 10° N
STARLINK-1269 3.4 19:06:40 10° SW 19:10:42 78° SSE 19:14:25 12° ENE
Cosmos 1544 Rocket 3.5 19:08:05 10° S 19:12:28 85° E 19:16:56 10° N
ERBS 4.2 19:09:47 10° W 19:12:46 28° NNW 19:15:45 10° NE
STARLINK-1094 3.6 19:09:18 10° WNW 19:13:18 72° SSW 19:15:46 22° SE
STARLINK-1073 4.2 19:10:36 10° WNW 19:14:37 47° NNE 19:17:06 21° E
USA 234 3.3 19:08:46 10° ENE 19:15:15 62° SE 19:21:43 10° SW
STARLINK-1200 3.5 19:11:20 10° SW 19:15:24 83° SE 19:18:56 13° ENE
Cosmos 2297 3.7 19:09:43 10° NNW 19:15:25 89° WSW 19:20:56 11° SSE
CZ-2C R/B 3.9 19:11:12 10° NNE 19:15:52 52° E 19:20:27 10° S
STARLINK-1117 3.7 19:13:49 10° WNW 19:17:49 68° SW 19:20:07 24° SE
STARLINK-1121 4.2 19:15:35 10° WNW 19:19:37 49° NNE 19:21:53 23° E
STARLINK-1192 3.5 19:15:59 10° WSW 19:20:02 88° SSE 19:23:24 15° ENE
Cosmos 2237 Rocket 3.4 19:16:12 10° SW 19:21:35 45° NW 19:27:00 10° NNE
STARLINK-1078 3.8 19:18:19 10° WNW 19:22:17 63° SW 19:24:26 25° SE
STARLINK-1106 4.1 19:20:33 10° WNW 19:24:36 51° NNE 19:26:39 26° E
STARLINK-1244 3.5 19:20:46 10° WSW 19:24:49 87° NNW 19:28:01 16° ENE
Cosmos 1302 Rocket 4.0 19:19:53 10° NNW 19:25:11 90° SW 19:29:43 14° SSE
STARLINK-1201 3.6 19:22:02 10° WSW 19:25:15 55° NNW 19:27:30 18° NE
STARLINK-1108 3.9 19:22:51 10° WNW 19:26:49 59° SW 19:28:47 27° SE
Cosmos 2278 Rocket 4.5 19:22:49 10° NW 19:27:11 23° WSW 19:31:32 10° SSW
CZ-2C R/B 2.9 19:22:59 10° NNE 19:27:53 41° E 19:32:38 11° SSE
Cosmos 2184 Rocket 4.4 19:22:34 10° N 19:28:38 45° ENE 19:32:14 23° SE
Cosmos 1269 Rocket 4.2 19:23:26 10° SSW 19:28:42 75° WNW 19:34:02 10° NNE
Cosmos 1758 Rocket 4.3 19:25:07 10° N 19:29:06 34° ENE 19:30:09 30° ESE
STARLINK-1138 3.6 19:25:28 10° WSW 19:29:31 82° NNW 19:32:32 17° ENE
STARLINK-1112 4.0 19:25:32 10° WNW 19:29:37 54° NNE 19:31:27 29° E
STARLINK-1209 4.0 19:27:54 10° W 19:30:39 37° NNW 19:32:14 20° NE
STARLINK-1066 4.4 19:28:18 10° WNW 19:31:07 29° SW 19:32:18 22° S
STARLINK-1071 4.0 19:27:22 10° WNW 19:31:19 54° SW 19:33:08 28° SSE
STARLINK-1081 4.4 19:28:46 10° WNW 19:31:32 29° SW 19:32:41 22° S
STARLINK-1228 4.0 19:28:54 10° W 19:31:36 37° NNW 19:33:08 20° NE
STARLINK-1070 4.4 19:29:14 10° WNW 19:31:59 29° SW 19:33:06 22° S
STARLINK-1124 4.1 19:28:17 10° WNW 19:32:20 54° SW 19:34:14 28° SSE
STARLINK-1069 4.4 19:29:38 10° WNW 19:32:25 29° SW 19:33:34 22° S
STARLINK-1085 4.4 19:30:05 10° WNW 19:32:52 28° SW 19:34:00 22° S
STARLINK-1086 4.4 19:30:36 10° WNW 19:33:20 28° SW 19:34:25 22° S
STARLINK-1095 4.5 19:31:02 10° WNW 19:33:47 28° SW 19:34:50 22° S
STARLINK-1077 4.5 19:31:29 10° WNW 19:34:12 27° SW 19:35:16 22° S
ARGOS 3.7 19:28:55 10° S 19:34:15 61° W 19:39:37 10° NNW
STARLINK-1143 3.6 19:30:15 10° WSW 19:34:18 77° NNW 19:37:08 19° ENE
STARLINK-1128 3.9 19:30:32 10° WNW 19:34:38 56° NNE 19:36:15 33° E
STARLINK-1075 4.5 19:31:57 10° WNW 19:34:40 27° SW 19:35:42 22° S
SL-8 R/B 3.8 19:30:46 10° W 19:35:33 73° N 19:38:03 28° E
Cosmos 2251 Rocket 4.0 19:30:40 10° S 19:35:35 39° ESE 19:40:33 10° NE
STARLINK-1110 4.1 19:31:55 10° WNW 19:35:49 50° SW 19:37:29 30° SSE
SL-24 R/B 4.0 19:33:06 10° NNE 19:37:48 76° ESE 19:41:53 10° S
STARLINK-1113 3.9 19:35:31 10° WNW 19:39:37 59° NNE 19:41:02 37° E
Cosmos 1470 2.9 19:37:29 10° SSW 19:41:21 72° W 19:45:15 10° N
STARLINK-1119 3.8 19:40:29 10° WNW 19:44:36 63° NNE 19:45:48 41° E
STARLINK-1241 3.8 19:40:45 10° WSW 19:44:45 68° NNW 19:47:06 23° NE
STARLINK-1122 4.3 19:41:07 10° WNW 19:44:57 43° SW 19:46:17 31° S
STARLINK-1233 4.1 19:42:05 10° W 19:45:04 40° NNW 19:46:21 26° NNE
SL-08 RB Rocket 4.2 19:41:00 10° S 19:45:26 58° W 19:49:57 10° NNW
STARLINK-1212 4.1 19:42:33 10° W 19:45:31 40° NNW 19:46:46 27° NNE
Cosmos 2315 Rocket 4.2 19:39:17 10° SSW 19:45:35 74° W 19:51:58 10° N
STARLINK-1105 4.1 19:42:59 10° W 19:45:59 40° NNW 19:47:13 27° NNE
STARLINK-1206 4.1 19:43:29 10° W 19:46:27 40° NNW 19:47:37 27° NNE
SJ-6B 4.1 19:42:44 10° S 19:46:36 42° W 19:50:32 10° NNW
STARLINK-1247 4.1 19:43:56 10° W 19:46:54 39° NNW 19:48:03 27° NNE
MetOp-A 4.2 19:42:29 15° SSE 19:46:59 81° WSW 19:52:23 10° NNW
Resurs 1-3 3.5 19:44:44 25° SSE 19:47:18 86° WSW 19:51:43 10° NNW
STARLINK-1227 4.1 19:44:20 10° W 19:47:19 39° NNW 19:48:30 27° NNE
ISS -3.3 19:44:27 10° WNW 19:47:45 50° NNE 19:48:11 46° NE
STARLINK-1218 4.1 19:44:50 10° W 19:47:48 39° NNW 19:48:55 28° NNE
STARLINK-1226 4.1 19:45:18 10° W 19:48:16 39° NNW 19:49:22 28° NNE
STARLINK-1254 4.1 19:45:42 10° W 19:48:41 39° NNW 19:49:49 28° NNE
STARLINK-1215 4.1 19:46:12 10° W 19:49:10 38° NNW 19:50:14 28° NNE
ERS-1 Rocket 4.3 19:48:48 22° ENE 19:49:11 22° ENE 19:53:01 10° NNE
Cosmos 1758 3.7 19:45:12 10° SSW 19:49:16 66° WNW 19:53:22 10° N
STARLINK-1239 3.9 19:45:22 10° WSW 19:49:21 64° NNW 19:51:30 26° NE
Cosmos 2154 Rocket 4.5 19:43:30 10° N 19:49:31 42° ENE 19:51:33 33° ESE
STARLINK-1126 4.4 19:45:46 10° WNW 19:49:34 40° SW 19:50:44 32° S
STARLINK-1231 4.1 19:46:39 10° W 19:49:36 38° NNW 19:50:39 28° NNE
STARLINK-1114 3.7 19:45:28 10° WNW 19:49:37 66° NNE 19:50:36 47° E
STARLINK-1232 4.2 19:47:34 10° W 19:50:31 38° NNW 19:51:31 29° NNE
STARLINK-1217 4.2 19:48:01 10° W 19:50:58 38° NNW 19:51:58 29° NNE
STARLINK-1208 4.2 19:48:26 10° W 19:51:24 38° NNW 19:52:25 29° NNE
STARLINK-1229 4.2 19:48:55 10° W 19:51:52 37° NNW 19:52:48 29° NNE
STARLINK-1271 4.2 19:49:23 10° W 19:52:20 37° NNW 19:53:17 29° NNE
BREEZE-M DEB (TANK) 3.4 19:46:10 10° WNW 19:52:28 68° N 19:53:10 51° ENE
IRIDIUM 104 4.2 19:47:28 10° N 19:52:44 88° E 19:56:26 20° S
STARLINK-1270 4.2 19:49:51 10° W 19:52:47 37° NNW 19:53:42 29° NNE
CZ-2C R/B 4.3 19:48:22 10° SSW 19:53:04 37° W 19:57:36 10° NNW
BREEZE M DEB (TANK) 4.1 19:43:34 10° SW 19:53:10 38° SSE 19:53:49 36° SE
STARLINK-1154 4.2 19:50:17 10° W 19:53:13 37° NNW 19:54:08 29° NNE
STARLINK-1240 4.0 19:49:58 10° WSW 19:53:57 61° NNW 19:55:56 28° NE
STARLINK-1197 4.2 19:51:12 10° W 19:54:08 37° NNW 19:54:59 30° NNE
STARLINK-1130 (DARKSAT) 3.7 19:50:26 10° WNW 19:54:34 70° NNE 19:55:22 54° E
STARLINK-1189 4.2 19:51:40 10° W 19:54:36 36° NNW 19:55:26 30° NNE
Resurs 01 Rocket 1.5 19:53:04 39° SSE 19:54:40 80° ENE 19:59:05 10° NNW
STARLINK-1187 4.3 19:52:33 10° W 19:55:29 34° NNW 19:56:21 28° NNE
STARLINK-1188 4.2 19:52:33 10° W 19:55:30 36° NNW 19:56:17 30° NNE
SPOT 5 4.4 19:56:05 18° NE 19:56:05 18° NE 19:58:31 10° NNE
STARLINK-1198 4.2 19:52:48 10° W 19:55:44 36° NNW 19:56:31 30° NNE
Cosmos 2369 Rocket 2.2 19:50:09 10° NNW 19:55:51 65° ENE 19:57:50 40° SE
STARLINK-1235 4.4 19:53:18 10° W 19:56:12 33° NNW 19:57:05 27° NNE
STARLINK-1199 4.3 19:54:31 10° W 19:57:27 36° NNW 19:58:13 31° NNE
STARLINK-1191 4.3 19:54:58 10° W 19:57:55 36° NNW 19:58:39 31° NNE
STARLINK-1210 4.3 19:55:25 10° W 19:58:21 36° NNW 19:59:04 31° NNE
STARLINK-1216 4.0 19:54:38 10° WSW 19:58:36 58° NNW 20:00:23 30° NE
STARLINK-1221 4.3 19:55:53 10° W 19:58:50 35° NNW 19:59:33 31° NNE
STARLINK-1219 4.3 19:56:20 10° W 19:59:16 35° NNW 19:59:58 31° NNE
Cosmos 2263 4.4 19:54:01 10° NNW 19:59:31 52° ENE 20:01:00 41° ESE
STARLINK-1084 3.6 19:55:24 10° WNW 19:59:34 74° NNE 20:00:09 61° E
STARLINK-1222 4.3 19:56:47 10° W 19:59:43 35° NNW 20:00:23 31° NNE
STARLINK-1211 4.3 19:57:14 10° W 20:00:10 35° NNW 20:00:48 31° NNE
STARLINK-1214 4.3 19:57:42 10° W 20:00:38 35° NNW 20:01:15 31° NNE
STARLINK-1245 4.3 19:58:12 10° W 20:01:06 34° NNW 20:01:40 31° N
STARLINK-1238 4.3 19:58:38 10° W 20:01:32 35° NNW 20:02:08 31° N
IRIDIUM 114 4.4 19:56:39 10° N 20:01:53 78° W 20:05:35 20° S
STARLINK-1205 4.3 19:59:35 10° W 20:02:29 34° NNW 20:02:59 32° N
STARLINK-1204 4.3 20:00:01 10° W 20:02:54 34° NNW 20:03:23 32° N
STARLINK-1237 4.1 19:59:19 10° W 20:03:16 55° NNW 20:04:52 32° NE
STARLINK-1098 3.5 20:00:23 10° WNW 20:04:32 79° NNE 20:04:55 70° E
SPOT 3 Rocket 4.3 20:00:43 13° S 20:05:15 51° W 20:10:22 10° NNW
Cosmos 1726 2.4 20:06:30 54° NE 20:06:30 54° NE 20:09:32 10° NNE
Landsat 7 4.3 20:06:34 40° ENE 20:06:38 40° ENE 20:11:05 10° N
STARLINK-1202 4.2 20:03:58 10° W 20:07:55 53° NNW 20:09:18 34° NE
Meteor 1-21 Rocket 4.3 20:02:47 10° NNW 20:08:22 74° W 20:11:31 26° S
Nadezhda 1 Rocket 4.1 20:06:17 36° SSE 20:08:38 55° E 20:14:51 10° NNE
STARLINK-1123 3.4 20:05:23 10° WNW 20:09:32 84° NNE 20:09:44 79° E
Cosmos 2228 3.6 20:11:02 41° NE 20:11:02 41° NE 20:14:11 10° NNE
MOS 1 Rocket 3.6 20:07:43 10° N 20:12:55 80° WNW 20:18:18 10° SSW
STARLINK-1246 4.3 20:09:06 10° W 20:13:04 50° NNW 20:14:18 36° NNE
STARLINK-1097 3.5 20:10:20 10° WNW 20:14:30 89° NNE 20:14:30 89° NNE
Cosmos 292 Rocket 3.9 20:13:19 10° NNW 20:18:06 72° WSW 20:19:07 53° S
Cosmos 1943 3.5 20:19:28 47° E 20:19:28 47° E 20:24:09 10° NE
STARLINK-1099 3.6 20:15:20 10° WNW 20:19:17 80° W 20:19:17 80° W
Cosmos 1943 Rocket 2.4 20:15:34 10° NNW 20:21:03 66° WSW 20:22:51 42° S
STARLINK-1224 4.4 20:18:02 10° W 20:21:56 46° NNW 20:22:45 40° NNE
Cosmos 2074 Rocket 4.1 20:17:13 10° NNW 20:23:29 74° W 20:26:45 30° S
NOSS 3-4 (A) 4.4 20:17:06 10° NNW 20:23:38 45° NE 20:25:57 35° E
NOSS 3-4 (C) 4.4 20:17:12 10° NNW 20:23:43 45° NE 20:26:03 35° E
STARLINK-1104 3.8 20:20:19 10° WNW 20:24:04 70° W 20:24:04 70° W
STARLINK-1225 4.5 20:22:47 10° W 20:26:40 45° NNW 20:27:17 41° N
Cosmos 1328 4.3 20:23:35 10° N 20:26:45 53° N 20:26:45 53° N
STARLINK-1144 4.0 20:25:17 10° WNW 20:28:50 62° W 20:28:50 62° W
Cosmos 1953 3.5 20:29:29 25° SW 20:31:15 40° WNW 20:35:02 10° N
Meteor 2-10 4.3 20:28:34 24° SSW 20:31:53 71° WNW 20:37:26 10° N
SPOT 1/Viking Rocket 3.6 20:32:06 62° ENE 20:32:06 62° ENE 20:37:15 10° N
NOSS 3-3 (A) 3.7 20:27:10 10° SSW 20:32:59 73° SE 20:39:34 10° NE
NOSS 3-3 (C) 3.7 20:27:17 10° SSW 20:33:05 72° SE 20:39:40 10° NE
Spot 2 Rocket 3.4 20:33:06 71° S 20:33:41 85° WSW 20:38:50 10° NNW
STARLINK-1103 4.2 20:30:16 10° WNW 20:33:37 54° W 20:33:37 54° W
SL-16 R/B 3.8 20:30:24 10° WSW 20:35:30 34° NW 20:40:38 10° NNE
Cosmos 2084 Rocket 4.0 20:31:08 10° NW 20:35:19 56° WSW 20:35:19 56° WSW
Cosmos 1610 Rocket 4.4 20:31:17 10° N 20:37:33 87° W 20:39:04 55° S
STARLINK-1101 4.4 20:35:16 10° WNW 20:38:25 47° W 20:38:25 47° W
IGS 5A 4.2 20:42:15 47° N 20:42:15 47° N 20:45:17 10° N
Aureole 2 Rocket 4.3 20:40:28 10° NW 20:42:44 29° WNW 20:42:44 29° WNW
Terra 3.0 20:49:36 33° NNE 20:49:36 33° NNE 20:52:42 10° N
Cosmos 2341 Rocket 3.9 20:47:22 10° N 20:53:44 70° E 20:53:51 70° E
Cosmos 1726 Rocket 4.4 20:55:08 47° NNW 20:55:08 47° NNW 20:58:30 10° N
ATLAS 2AS CENTAUR R/B 2.8 20:49:00 10° NW 20:56:40 67° NE 20:57:41 60° E
Cosmos 1603 3.9 20:53:25 24° SW 20:56:50 69° WNW 21:02:27 10° NNE
USA 234 3.8 20:51:53 10° NE 20:58:14 56° NNW 21:04:36 10° W
Aureole 1 Rocket 4.2 21:07:14 72° SSE 21:07:53 77° ESE 21:14:36 10° NNE
CZ-2C R/B 4.3 21:03:36 10° N 21:08:03 29° WNW 21:12:27 10° WSW
COSMOS 2455 3.5 21:05:45 10° NNW 21:11:09 44° NE 21:11:09 44° NE
Cosmos 2218 Rocket 4.2 21:16:16 10° N 21:21:26 60° NNE 21:21:26 60° NNE
Cosmos 1656 Rocket 4.2 21:17:45 10° NNW 21:22:37 54° W 21:22:37 54° W
ERS-1 Rocket 3.9 21:28:47 45° NW 21:28:47 45° NW 21:32:34 10° NNW
Resurs 01 Rocket 4.4 21:30:38 11° WSW 21:31:43 11° W 21:33:12 10° WNW
Cosmos 2181 Rocket 4.3 21:33:09 62° N 21:33:09 62° N 21:38:15 10° N
SPOT 5 4.4 21:35:19 29° NW 21:35:19 29° NW 21:37:37 10° NNW
Cosmos 2369 Rocket 4.0 21:35:07 10° NW 21:39:21 22° W 21:39:39 22° WSW
CZ-4C R/B 4.4 21:58:14 10° NNW 22:03:41 26° NNE 22:06:33 20° ENE
Mayak 1.7 22:06:34 10° N 22:06:55 12° N 22:06:55 12° N
NOSS 3-4 (A) 4.4 22:07:58 10° NW 22:13:24 49° W 22:13:24 49° W
NOSS 3-4 (C) 4.4 22:08:04 10° NW 22:13:29 49° W 22:13:29 49° W
Terra 4.3 22:28:30 18° NW 22:28:30 18° NW 22:30:04 10° NW
Cosmos 1697 Rocket 4.4 22:22:52 10° NNW 22:26:03 27° NNE 22:26:03 27° NNE
USA 234 4.5 22:34:41 10° ENE 22:40:33 37° N 22:46:26 10° WNW
ATLAS 2AS CENTAUR R/B 4.2 22:40:40 10° NW 22:45:08 28° W 22:45:08 28° W
Cosmos 1980 Rocket 4.1 22:47:59 10° NNW 22:50:54 24° NNE 22:50:54 24° NNE
